ONEWEB-0143 (47289 NORAD) Tracking and Keplerian Element Data

This shows tracking and keplerian element data for the satellite.

Feedback or suggestion? Click here.




ElementValue
Catalog47289
NameONEWEB-0143
Epoch Orbit172
Epoch Day62.91667824
Epoch Year2021
RAAN15.511
Inclination87.5722
Eccentricity0.0014484
Argument of Perigee31.7565
Mean Anonmoly85.1308
Mean Motion13.92143899
Decay Rate-0.00985033
L11 47289U 20100AH 21062.91667824 -.00985033 00000-0 -81459+0 0 9993
L22 47289 87.5722 15.5110 0014484 31.7565 85.1308 13.92143899 1728

Live tracking and technical data element details for ONEWEB-0143 (NORAD 47289). ONEWEB-0143 can be tracked NOW for your location showing map with azimuth and elevation plus other details from your city location.

Track the satellite on the map from your city or location and see movement details for azimuth, elevation, latitude, longitude, range, height, and movement on the map or in text.







IsCatalogInMostPopularTable: catalog: 47289, numindb: 31
Update: records affected: 1



GetName: 47289 ONEWEB-0143

Hit Count: updated at: Fri, 05 Mar 2021 06:24:23 GMT